METEOR 2-5 DEB, 45511

Orbit data source: Space-Track

METEOR 2-5 DEB, 45511 is space debris in LEO originally from a launch on Wed, 31 Oct 1979 UTC launched from the Plesetsk Missile And Space Complex (PKMTR). Debris objects in space refer to the collection of defunct objects orbiting the Earth. Examples of debris include non-operational satellites, rocket bodies, and fragments generated from explosions, collisions, or faulty payload assembly.

Loading next visibility...
Identifier
45511, 1979-095CT
Orbit
LEO
Country
Flag of CISCIS
Related business
Manufacturer
Unknown
Mission
Spacecraft
Bus & Motor
Unknown
Mass
Unknown
Launch date (UTC)
1979-10-31 (47 years ago)
Launch vehicle
Unknown
Launch site
Plesetsk Missile And Space Complex (PKMTR)
Object type
Payload
Rocket body
Debris
Shape & HBR
Unknown shape, 0.1 m
Radar Cross Section
Small (<0.1 m²)

Expand to show TLE details & history
Last TLE update: 1 day ago

TLE from 1 day ago
0 METEOR 2-5 DEB
1 45511U 79095CT  26123.06978751  .00003213  00000-0  14108-2 0  9998
2 45511  81.2195 253.0481 0009168 257.4466 102.5687 14.23387079433334
Epoch: 2026-05-03T01:40Z
TLE epoch observation values (Epoch: 2026-05-03T01:40:29.640Z)
Latitude
-0.00003°
Longitude
6.94597°
Altitude
818.278 km
Speed
7.443 km/s
True Right ascension
16h 52m 11s
True Declination
0° 00' 00"
Sunlit
Object was in full shadow at epoch
Visualization orbit readout
Latitude
Unknown
Longitude
Unknown
Altitude
Unknown
Speed
Unknown
Apparent Right ascension
Unknown
Apparent Declination
Unknown
Sunlit
N/A
Visualization observer readout
Local Sidereal Time
09:36:16
Azimuth
Unknown
Elevation
Unknown
Doppler factor
Unknown
Orbital elements
Apogee altitude
817.669 km
Perigee altitude
804.487 km
Semi-major axis
7,189.215 km
Eccentricity
0.00092
Inclination
81.2195°
RAAN
253.0481°
Arg. of periapsis
257.4466°
True anomaly
102.67121°
Mean anomaly
102.5687°
Eccentric anomaly
102.61996°
Mean motion
3.56058 °/min
Orbital period
101.11 mins
BSTAR
0.0014108
Loading maneuver chart data...
Computing Atmospheric mass density...

Documentation

Showing up to 5 results
|